Regional Weather Roundup
Issued by NWS New Orleans/Baton Rouge, LA

Home | Current Version | Previous Version | Graphics & Text | Print | Product List | Glossary On
Versions: 1 2 3 4 5 6 7 8 9 10 11 12 13 14 15 16 17 18 19 20 21 22 23 24 25 26 27 28 29 30 31 32 33 34 35 36 37 38 39 40 41 42 43 44 45 46 47 48 49 50
447
ASUS44 KLIX 010205
RWRLIX
NEW ORLEANS REGIONAL WEATHER ROUNDUP
NATIONAL WEATHER SERVICE NEW ORLEANS LA
900 PM CDT TUE SEP 30 2014

NOTE: "FAIR" INDICATES FEW OR NO CLOUDS BELOW 12,000 FEET WITH NO
      SIGNIFICANT WEATHER AND/OR OBSTRUCTIONS TO VISIBILITY.
      SKY/WX - SKY CONDITION AND SIGNIFICANT WEATHER.
      TMP - AIR TEMPERATURE.     DP    - DEWPOINT TEMPERATURE.
      RH  - RELATIVE HUMIDITY.   PRES  - PRESSURE.
      HI  - HEAT INDEX.          WCI   - WIND CHILL INDEX.

*  THESE STATIONS ARE NOT NWS OR FAA STATIONS AND ARE NOT UNDER
   NWS QUALITY CONTROL.

LAZ038-040-048-061>063-065>067-069-010300-
SOUTHEAST LOUISIANA

CITY           SKY/WX    TMP DP  RH WIND       PRES   REMARKS
N.O. AUDUBON     N/A     78  75  90 MISG        N/A
N.O. INTL ARPT PTCLDY    78  71  79 SE9       29.87R
N.O. LAKEFRONT CLEAR     78  72  81 SE9       29.88R
N.O. DOWNTOWN*   N/A     79  70  73 SE3       29.88R
SLIDELL        CLEAR     76  72  87 CALM      29.88R
BATON ROUGE    CLEAR     77  68  73 E8        29.86R
BOOTHVILLE     CLEAR     78  74  87 E7        29.88R
BELLE CHASSE   PTCLDY    77  72  84 E6        29.88R
BOGALUSA*        N/A     75  70  85 CALM      29.90R
GALLIANO*      NOT AVBL
NEW ROADS*       N/A     79  72  79 CALM      29.85R
GONZALES*        N/A     78  76  95 CALM      29.86R
HAMMOND*       CLEAR     77  70  78 SE6       29.89R
HOUMA*         CLEAR    N/A N/A N/A E5        29.87R
PORT FOURCHON* PTCLDY    81  75  83 E8G15     29.90R

$$

MSZ070-080>082-010300-
SOUTHERN MISSISSIPPI

CITY           SKY/WX    TMP DP  RH WIND       PRES   REMARKS
MCCOMB         CLEAR     76  69  79 SE5       29.88R
GULFPORT       CLEAR     77  71  82 SE5       29.88R
BILOXI         CLEAR     78  71  77 SE6       29.88R
PASCAGOULA     CLEAR     72  69  90 CALM      29.89R

$$

COASTAL OBSERVATIONS
LAKE AND NEARSHORE STATIONS

STATION/POSITION TIME  TEMP    WIND        PRES    WAVE
                       AIR SEA DIR/SP/G            HT/PER
                 (UTC) (F)     (DEG/KT/KT) (MB)    (FT/S)
PASCAGOULA       0200   79     100/  4/  7 1011.4
WAVELAND YACHT   0200   78     150/  8/ 10 1011.1
GRAND ISLE       0200   80 83  110/  6/ 12 1012.0
SOUTHWEST PASS   0200   80 86  100/ 15/ 17 1011.7
NEW CANAL        0200   78 78  140/  2/  5 1012.0
SHELL BEACH      0200   77 76  110/  7/  9 1011.6

OFFSHORE STATIONS

STATION/POSITION TIME  TEMP    WIND        PRES    WAVE
                       AIR SEA DIR/SP/G            HT/PER
                 (UTC) (F)     (DEG/KT/KT) (MB)    (FT/S)
64 S DAUPHIN ISL 0129   79 82   80/ 12/ 14 1012.3    2/ 5

$$




USA.gov is the U.S. government's official web portal to all federal, state and local government web resources and services.